User: anonymous   Login
Location: Aiyekoto
(8.4333°N, 4.3667°E)
Time: 04:03:54
(UTC+00:00)
Language:

Cosmos 2219 Rocket - Orbit

View from above orbital plane
View from above orbital plane
View from above satellite
View from above satellite

Ground track
Ground track

The orbit data is extracted from the following two-line orbital elements,

1 22220U 92076B   21138.88316517  .00000168  00000-0  10816-3 0  9990
2 22220  71.0003 285.4759 0014988 253.8849 219.5882 14.16471020473173
Epoch (UTC): 18 May 2021 21:11:45
Eccentricity: 0.0014988
inclination: 71.0003°
perigee height: 826 km
apogee height: 848 km
right ascension of ascending node: 285.4759°
argument of perigee: 253.8849°
revolutions per day: 14.16471020
mean anomaly at epoch: 219.5882°
orbit number at epoch: 47317

The dashed part of the orbit path shows where the satellite is in the earth's shadow,  

DLR